Theta_e
316 316 315 314 313 314 313 313 311 310 310 310 310 310 309 310 310 310 310 309 309 309 309 310 311 311 313 311 311 311 310 309 308 308 308 308 306 306 307 305 305 304
317 317 316 315 315 314 313 314 312 311 310 310 311 311 311 311 310 310 309 310 309 308 308 309 309 310 309 310 308 308 307 308 308 312 309 307 305 305 305 304 303 303
317 317 316 315 315 315 314 314 313 312 311 311 311 312 312 312 311 309 310 309 309 308 308 307 308 309 309 307 308 309 308 306 306 307 309 305 305 305 303 303 303 302
317 317 316 316 316 316 315 315 313 313 311 312 312 313 313 314 312 310 310 315 309 308 307 307 308 307 308 308 308 308 306 306 306 307 307 306 307 305 305 305 304 303
316 317 317 316 316 316 316 315 314 314 313 313 312 313 313 313 312 311 311 309 309 308 308 308 307 307 308 308 308 307 306 306 305 305 305 304 306 306 306 305 303 304
317 317 318 318 316 315 316 316 314 315 314 313 313 314 312 313 313 312 311 310 309 310 309 308 308 308 307 307 307 308 308 307 305 306 305 304 305 305 307 304 303 302
317 317 317 317 317 315 316 316 314 315 315 315 314 313 312 313 313 312 312 311 310 311 311 310 309 308 306 306 307 306 306 306 306 307 305 303 304 304 305 304 305 304
317 317 317 316 316 315 315 315 314 314 315 315 314 314 314 314 315 314 313 312 311 310 310 311 310 310 308 307 308 306 305 308 306 307 305 304 303 303 303 305 302 303
316 316 317 317 317 316 316 317 316 316 317 315 314 314 314 314 315 315 314 313 313 312 310 310 311 310 310 308 308 308 306 307 307 306 305 305 303 302 303 303 302 303
315 313 315 316 316 316 317 317 317 316 317 316 316 315 315 314 313 314 314 313 313 313 312 311 311 310 310 309 308 308 307 307 307 305 305 306 305 303 304 303 302 302
314 313 313 313 315 317 317 316 316 316 316 316 316 317 316 316 315 315 314 314 313 312 313 312 312 311 311 310 309 308 308 307 307 306 305 305 305 304 307 304 303 303
313 312 313 315 315 314 315 315 316 316 315 314 313 316 316 315 315 315 315 314 313 312 312 313 313 312 311 311 310 309 309 308 308 306 306 306 305 304 306 304 304 304
312 312 314 314 314 314 313 312 313 314 314 314 315 316 315 314 313 313 313 313 313 312 312 311 312 312 312 311 310 309 309 308 308 306 306 306 305 305 305 304 304 304
311 311 312 313 314 313 312 312 313 312 313 312 313 313 313 313 314 315 314 314 314 314 314 313 312 312 313 313 312 311 309 308 308 307 306 306 305 305 304 304 304 304
305 305 306 309 312 312 311 310 311 311 312 311 310 311 312 312 312 313 313 312 312 313 313 312 313 313 314 313 313 312 310 309 309 308 307 306 305 305 303 303 303 303
304 305 304 304 304 305 305 306 309 311 310 310 311 310 309 309 310 310 310 311 312 312 312 312 313 313 313 308 309 313 312 311 310 309 308 307 306 304 303 303 303 302
303 303 303 302 301 301 302 303 305 309 309 310 310 309 309 309 310 310 310 311 311 311 311 312 313 314 306 302 301 304 312 311 310 310 309 308 307 305 303 303 302 303
302 303 303 303 303 302 303 303 304 305 306 307 308 309 310 309 309 311 310 309 310 310 310 311 312 309 303 301 299 298 303 312 311 310 309 308 307 306 305 304 303 303
299 300 301 300 300 302 302 302 302 303 303 303 305 308 308 308 310 307 309 309 308 309 310 311 311 306 302 300 299 298 297 303 310 308 307 307 306 305 304 303 303 303
297 297 297 298 299 299 298 298 297 298 299 299 300 300 303 304 305 306 306 306 308 309 310 309 309 306 301 299 299 298 296 297 308 308 307 306 306 304 304 303 303 302
297 297 298 298 297 297 296 296 296 296 296 296 296 298 299 300 300 302 304 305 305 307 307 307 303 295 296 297 296 296 295 294 304 305 304 303 303 302 302 302 302 303
297 297 297 297 296 295 296 296 295 297 298 297 295 294 295 296 297 298 299 300 301 303 304 301 291 292 293 294 295 294 295 300 300 300 300 300 300 300 301 301 302 301
297 296 297 296 296 296 297 296 297 297 296 296 295 293 294 295 294 296 297 300 299 301 300 292 290 291 292 292 293 294 297 298 298 298 298 298 298 299 300 299 299 299
296 296 296 296 295 296 295 295 295 295 295 295 298 296 295 294 294 297 294 296 298 299 299 295 290 292 293 293 294 295 297 297 296 296 296 297 298 299 298 297 300 305
296 296 296 296 296 294 295 295 295 296 296 295 295 295 295 293 295 294 293 292 294 296 301 294 289 292 293 293 294 294 297 296 296 296 296 297 297 295 294 293 293 295
295 296 296 295 295 294 294 296 295 296 297 298 295 295 294 291 291 290 289 289 291 290 292 290 290 290 292 292 294 294 295 297 296 295 294 293 293 293 292 291 291 291
Wind_Speed
7 6 7 6 5 5 7 7 5 5 4 5 6 6 6 4 3 4 4 4 4 5 4 5 5 5 5 4 4 4 4 4 4 4 5 5 5 5 6 5 5 5
7 6 6 7 5 3 4 6 7 6 6 5 6 6 5 4 4 5 5 4 4 4 4 5 5 5 5 5 5 5 4 4 4 2 5 5 4 5 5 4 4 4
7 5 6 7 8 6 6 6 6 6 6 5 4 4 5 4 5 4 5 5 4 4 4 4 4 4 4 4 4 4 4 4 4 2 4 4 4 5 4 4 4 4
8 8 7 7 8 8 7 6 5 5 4 4 5 6 5 5 5 5 4 5 5 4 3 4 4 4 4 4 4 4 4 4 3 4 4 3 3 4 4 4 4 4
9 8 7 7 7 8 7 7 7 7 7 8 5 5 5 5 6 5 6 5 5 4 4 4 4 4 5 5 5 5 4 5 3 4 4 3 1 2 2 4 4 4
8 8 7 7 7 8 7 8 8 9 8 6 8 6 6 6 6 6 6 6 5 6 5 4 4 4 4 4 4 5 5 6 4 4 4 4 2 1 2 4 4 3
8 7 8 8 8 8 9 9 8 8 9 9 6 6 6 6 6 7 7 7 7 6 7 6 5 5 4 4 4 4 4 5 4 5 4 3 4 2 2 2 2 2
4 5 8 8 8 8 7 7 7 7 8 7 10 9 8 8 8 7 7 8 6 5 5 6 6 7 6 6 6 6 5 4 6 5 5 4 4 4 3 3 4 4
8 1 3 6 6 5 6 7 8 9 9 11 9 8 7 8 8 8 7 7 8 8 5 5 6 6 6 7 7 7 7 5 5 6 6 5 5 5 5 4 5 5
10 7 9 6 3 2 1 5 6 6 7 9 8 7 8 6 7 7 6 6 6 6 7 7 6 5 5 5 6 6 6 7 5 5 5 5 6 5 5 5 5 4
12 7 3 1 3 4 7 3 2 6 6 8 8 8 8 8 7 7 7 7 7 6 7 7 7 7 7 6 5 5 6 6 6 6 6 5 6 6 6 6 5 5
6 7 6 5 4 5 6 6 3 1 2 3 4 5 5 5 6 5 6 6 5 5 5 7 7 7 7 8 7 6 6 6 6 6 6 6 5 5 6 6 6 5
7 7 9 8 7 7 6 5 4 3 2 2 2 5 6 4 3 3 1 4 4 4 4 4 4 4 6 6 6 6 6 6 6 6 6 6 5 6 5 5 6 5
6 6 7 8 8 7 7 7 4 2 2 2 2 1 2 3 4 5 4 4 4 4 5 5 5 5 5 5 5 6 6 6 6 7 7 6 5 5 5 5 6 6
4 4 4 5 7 8 6 5 4 4 3 3 3 4 4 4 2 2 3 2 3 3 3 4 6 6 6 5 5 5 6 6 6 7 7 7 6 6 6 6 6 6
4 3 3 2 2 3 4 4 4 4 3 3 3 3 3 3 3 2 2 3 3 3 3 4 5 4 6 12 9 6 5 5 5 7 7 7 7 7 6 6 7 6
2 2 1 3 3 2 2 2 1 1 2 3 4 4 4 3 1 2 3 3 3 4 5 5 5 5 10 10 11 11 7 5 6 6 7 7 7 8 8 8 6 5
2 1 2 4 2 3 2 1 0 0 1 2 2 3 4 1 3 4 4 3 3 4 4 5 5 8 11 11 10 10 8 6 5 6 7 7 7 8 8 8 8 7
2 3 4 3 4 4 2 2 2 1 2 3 4 5 2 4 5 4 4 3 3 4 4 5 5 8 10 10 10 8 9 7 4 4 5 6 7 8 8 7 6 6
3 3 4 2 1 1 2 2 3 2 1 0 1 2 2 3 3 3 3 3 4 4 6 4 6 7 7 9 9 8 6 6 5 5 5 7 8 7 7 7 7 7
2 4 4 3 3 4 4 3 2 1 1 1 2 2 1 0 2 3 4 4 4 4 4 5 2 4 1 4 7 9 10 7 5 4 4 4 3 4 4 4 5 5
1 2 2 3 3 3 3 2 2 1 1 2 2 3 1 1 0 1 2 3 3 4 5 2 1 5 5 6 8 7 6 3 3 4 4 5 5 5 6 6 6 6
3 3 4 4 4 3 2 1 1 0 1 0 3 4 4 4 4 3 3 0 3 4 4 3 0 2 1 5 7 10 7 5 5 5 5 5 4 4 6 5 3 4
1 3 5 4 4 4 4 3 2 1 1 1 1 1 4 4 3 4 3 1 2 4 6 5 2 1 5 8 10 10 9 7 6 6 5 6 6 6 6 6 7 7
1 2 3 4 4 4 4 4 4 3 1 2 1 1 1 2 2 2 2 4 3 1 2 5 4 4 6 9 11 12 8 6 7 6 7 5 6 6 6 5 5 6
2 2 2 2 3 3 3 4 3 1 1 1 1 3 3 4 3 3 2 3 4 3 3 1 2 3 2 8 10 10 9 6 6 7 7 5 5 6 6 5 5 5
Wind_Direction
144 151 164 169 195 182 159 158 168 163 168 159 157 173 169 177 157 134 140 130 128 122 117 110 113 110 109 105 104 96 98 104 95 90 84 86 73 73 69 72 69 86
154 161 172 163 171 198 179 163 166 167 176 179 176 170 178 155 166 145 147 135 125 128 121 112 119 130 129 122 119 107 95 94 92 87 88 80 82 78 79 85 95 87
159 165 172 173 170 186 185 176 167 172 173 194 184 177 173 163 158 155 146 142 139 143 129 122 116 126 125 125 117 111 116 113 115 86 90 99 88 84 92 93 78 78
175 179 179 181 172 178 182 167 173 174 163 160 197 191 171 169 158 156 151 143 139 145 141 115 128 135 131 131 115 110 122 119 132 114 95 76 82 92 77 82 80 60
176 175 185 183 180 178 173 170 172 176 177 184 186 193 170 163 161 158 155 155 150 155 157 148 142 149 139 135 130 127 135 130 123 105 105 97 54 90 86 88 85 71
174 170 175 179 194 171 179 181 176 177 176 169 188 187 184 169 166 163 164 163 167 163 165 163 145 161 143 140 136 145 151 141 145 117 121 132 119 62 79 90 91 81
174 167 169 191 196 179 180 187 176 175 174 178 166 186 177 175 171 173 171 172 175 176 170 172 160 164 160 144 143 155 167 159 153 141 144 156 144 139 66 99 104 100
178 181 186 191 197 181 175 177 168 169 170 162 177 185 180 179 181 180 176 175 179 185 187 182 176 171 173 162 165 167 183 181 162 156 164 169 155 161 135 125 122 114
12 329 185 165 175 168 164 162 167 165 169 171 177 179 185 180 182 185 187 181 177 181 187 196 197 190 184 178 179 175 177 188 179 168 168 171 175 177 170 153 123 134
68 11 343 359 48 26 128 168 153 160 167 162 167 168 175 187 182 184 186 187 190 185 187 193 200 203 199 196 187 180 178 185 188 181 176 177 181 183 175 165 157 144
135 161 161 66 322 192 209 269 183 168 164 151 154 160 173 176 187 181 182 187 193 193 197 201 202 198 198 205 200 189 187 186 187 185 182 184 185 184 182 174 170 167
160 149 162 135 117 331 346 341 296 250 169 161 148 154 160 169 172 194 188 184 188 202 206 210 210 205 203 204 199 191 193 191 189 189 188 187 189 185 180 180 175 180
204 172 160 163 164 186 196 210 249 217 162 145 153 171 177 146 154 169 136 130 159 173 200 222 229 225 221 215 202 194 192 191 193 196 192 193 194 186 185 179 177 172
182 179 165 165 161 173 202 210 183 168 213 209 162 210 227 200 181 194 201 162 176 186 176 174 192 213 228 222 211 200 193 197 196 197 198 197 192 187 179 178 179 173
167 173 166 170 176 176 179 191 200 202 208 208 202 219 223 233 231 208 185 191 202 199 186 181 186 197 200 204 195 199 196 197 200 204 199 193 191 189 185 177 176 172
169 162 168 171 167 184 190 185 195 209 209 224 228 222 230 240 242 230 207 206 210 226 209 201 215 220 212 200 196 191 191 195 197 203 202 197 190 188 191 189 181 174
161 187 202 216 229 235 263 253 221 166 195 227 245 248 246 247 225 247 242 220 202 199 211 219 224 227 226 215 214 206 195 197 194 208 208 202 194 185 186 189 185 171
216 177 196 239 250 251 234 230 277 196 224 233 252 266 260 240 236 241 243 228 206 203 212 221 229 237 237 236 230 224 224 218 207 205 203 203 198 193 190 183 174 164
220 195 221 246 243 229 221 177 168 203 245 239 237 243 229 200 232 233 249 241 211 215 232 234 243 246 246 250 251 234 218 224 228 211 201 202 196 195 190 178 163 150
167 146 146 175 115 71 75 82 96 142 240 283 318 348 343 310 306 262 254 240 227 221 229 239 237 261 251 250 258 264 239 204 230 220 210 202 197 189 179 168 155 145
118 122 135 158 160 145 120 103 105 89 101 157 159 152 160 223 260 275 268 242 225 225 235 252 293 359 234 216 227 228 220 198 226 211 183 168 147 127 117 109 101 113
143 148 165 161 123 93 85 71 41 56 17 340 26 13 16 50 12 187 237 256 233 192 213 198 293 291 196 185 188 195 176 155 145 126 127 122 117 118 111 112 126 135
163 164 183 185 145 120 125 133 109 44 349 11 17 4 359 355 339 338 332 22 207 197 166 162 282 352 174 145 138 128 110 98 101 102 100 107 108 112 112 111 110 129
226 159 179 187 162 170 191 199 204 242 245 173 105 354 342 338 337 332 343 357 193 198 175 167 183 193 145 140 138 136 128 120 113 106 96 99 95 74 68 58 28 56
155 163 179 178 184 199 180 177 202 202 210 139 123 110 45 357 10 23 355 11 7 337 203 146 158 178 170 146 136 134 127 126 122 115 108 102 100 84 68 69 58 51
217 192 182 167 191 216 215 212 210 170 187 179 71 82 77 53 50 52 49 20 10 34 38 19 129 151 169 143 131 123 119 116 122 126 126 116 104 112 99 74 74 75